Change the Weather History Date:

Wednesday, July 24, 2013

  Actual Average Record
Temperature  
Mean Temperature 69 °F 73 °F  
Max Temperature 82 °F 84 °F 105 °F (1940)
Min Temperature 55 °F 62 °F 43 °F (1904)
Degree Days  
Heating Degree Days 0 0  
Month to date heating degree days 0 0  
Since 1 June heating degree days 69 51  
Since 1 July heating degree days 0 0  
Cooling Degree Days 4 8  
Month to date cooling degree days 230 200  
Year to date cooling degree days 408 371  
Since 1 June cooling degree days 366 335  
Growing Degree Days 18 (Base 50)    
Moisture  
Dew Point 58 °F    
Average Humidity 69    
Maximum Humidity 93    
Minimum Humidity 40    
Precipitation  
Precipitation 0.00 in 0.10 in 2.52 in (2001)
Month to date precipitation 0.59 2.41  
Year to date precipitation 17.18 15.66  
Snow  
Snow 0.00 in 0.00 in 0.00 in ()
Month to date snowfall 0.0 0.0  
Since 1 June snowfall 0.0 0.0  
Since 1 July snowfall 0.0 0.0  
Snow Depth 0.00 in    
Sea Level Pressure  
Sea Level Pressure 30.04 in    
Wind  
Wind Speed 2 mph (WNW)    
Max Wind Speed 9 mph    
Max Gust Speed 14 mph    
Visibility 10 miles    
Events      
T = Trace of Precipitation, MM = Missing Value Source: NWS Daily Summary

Daily Weather History Graph

Daily Weather History Graph

Search for Another Location

Airport or City:

Trip Planner

Search our weather history database for the weather conditions in past years. The results will help you decide how hot, cold, wet, or windy it might be!

Date:

Astronomy

Jul. 24, 2013 Rise Set
Actual Time 6:08 AM CDT 8:58 PM CDT
Civil Twilight 5:34 AM CDT 9:31 PM CDT
Nautical Twilight 4:52 AM CDT 10:13 PM CDT
Astronomical Twilight 4:02 AM CDT 11:03 PM CDT
Moon 9:57 PM CDT (7/24) 8:35 AM CDT (7/24)
Length of Visible Light 15h 56m
Length of Day
14h 49m
Waning Gibbous, 94% of the Moon is Illuminated
Jul 24
Waning Gibbous
Jul 29
Last Quarter
Aug 6
New
Aug 14
First Quarter
Aug 20
Full

Hourly Weather History & Observations

Time (CDT) Temp. Heat Index Dew Point Humidity Pressure Visibility Wind Dir Wind Speed Gust Speed Precip Events Conditions
12:56 AM 60.1 °F - 55.9 °F 86% 30.04 in 10.0 mi Calm Calm - N/A   Clear
1:56 AM 57.9 °F - 55.0 °F 90% 30.04 in 10.0 mi Calm Calm - N/A   Clear
2:56 AM 57.0 °F - 55.0 °F 93% 30.05 in 10.0 mi Calm Calm - N/A   Clear
3:56 AM 55.9 °F - 54.0 °F 93% 30.06 in 10.0 mi Calm Calm - N/A   Clear
4:56 AM 55.9 °F - 54.0 °F 93% 30.06 in 10.0 mi Calm Calm - N/A   Partly Cloudy
5:56 AM 57.0 °F - 55.0 °F 93% 30.07 in 10.0 mi Calm Calm - N/A   Mostly Cloudy
6:56 AM 59.0 °F - 55.9 °F 90% 30.08 in 10.0 mi Calm Calm - N/A   Mostly Cloudy
7:56 AM 64.0 °F - 57.9 °F 80% 30.08 in 10.0 mi Calm Calm - N/A   Scattered Clouds
8:56 AM 68.0 °F - 57.0 °F 68% 30.10 in 10.0 mi Calm Calm - N/A   Partly Cloudy
9:56 AM 71.1 °F - 57.9 °F 63% 30.09 in 10.0 mi Variable 3.5 mph - N/A   Partly Cloudy
10:56 AM 73.0 °F - 57.9 °F 59% 30.09 in 10.0 mi WNW 6.9 mph - N/A   Partly Cloudy
11:56 AM 75.9 °F - 59.0 °F 56% 30.08 in 10.0 mi WNW 6.9 mph - N/A   Scattered Clouds
12:56 PM 75.0 °F - 57.9 °F 55% 30.08 in 10.0 mi SW 4.6 mph - N/A   Mostly Cloudy
1:56 PM 78.1 °F - 60.1 °F 54% 30.06 in 10.0 mi WNW 8.1 mph - N/A   Scattered Clouds
2:56 PM 80.1 °F 80.9 °F 60.1 °F 50% 30.04 in 10.0 mi West 8.1 mph - N/A   Scattered Clouds
3:56 PM 80.1 °F 80.9 °F 60.1 °F 50% 30.03 in 10.0 mi Variable 5.8 mph - N/A   Mostly Cloudy
4:56 PM 82.0 °F 82.7 °F 61.0 °F 49% 30.01 in 10.0 mi NNW 4.6 mph - N/A   Scattered Clouds
5:56 PM 80.1 °F 80.9 °F 60.1 °F 50% 30.00 in 10.0 mi Calm Calm - N/A   Mostly Cloudy
6:56 PM 80.1 °F 80.9 °F 60.1 °F 50% 29.99 in 10.0 mi West 4.6 mph - N/A   Partly Cloudy
7:56 PM 79.0 °F - 63.0 °F 58% 30.00 in 10.0 mi Calm Calm - N/A   Partly Cloudy
8:56 PM 75.9 °F - 57.9 °F 54% 29.99 in 10.0 mi Calm Calm - N/A   Partly Cloudy
9:56 PM 68.0 °F - 60.1 °F 76% 30.00 in 10.0 mi Calm Calm - N/A   Partly Cloudy
10:56 PM 66.0 °F - 61.0 °F 84% 30.01 in 10.0 mi Calm Calm - N/A   Clear
11:56 PM 66.0 °F - 61.0 °F 84% 30.00 in 10.0 mi Calm Calm - N/A   Partly Cloudy